This is the latest recevied weather packets stored in our database for station/object AI5KP-13. If no packets are shown the sender has not sent any weather packets the latest 1 day(s).
| Time | Temp. | Humidity | Pressure | Rain* | Wind** | Luminosity | Snow |
|---|---|---|---|---|---|---|---|
| 1778034038 | 10° C | 92% | 1008.8 hPa | 0 mm | 0.89 m/s, 45° | 0 W/m² | - |
| 1778033735 | 10° C | 92% | 1008.6 hPa | 0 mm | 3.58 m/s, 14° | 0 W/m² | - |
| 1778033432 | 10° C | 92% | 1008.7 hPa | 0 mm | 1.34 m/s, 325° | 0 W/m² | - |
| 1778033130 | 10° C | 92% | 1008.5 hPa | 0 mm | 1.79 m/s, 91° | 0 W/m² | - |
| 1778032827 | 10° C | 92% | 1008.7 hPa | 0 mm | 2.24 m/s, 13° | 0 W/m² | - |
| 1778032525 | 10° C | 93% | 1008.7 hPa | 0 mm | 0.45 m/s, 341° | 0 W/m² | - |
| 1778032221 | 10° C | 94% | 1008.7 hPa | 0 mm | 1.34 m/s, 53° | 0 W/m² | - |
| 1778031919 | 10° C | 94% | 1008.7 hPa | 0 mm | 2.68 m/s, 18° | 0 W/m² | - |
| 1778031614 | 10° C | 94% | 1008.7 hPa | 0 mm | 0.45 m/s, 35° | 0 W/m² | - |
| 1778031313 | 10° C | 94% | 1008.7 hPa | 0 mm | 2.68 m/s, 343° | 0 W/m² | - |
| 1778031009 | 10° C | 93% | 1008.6 hPa | 0 mm | 1.34 m/s, 14° | 0 W/m² | - |
| 1778030705 | 10° C | 93% | 1008.6 hPa | 0 mm | 1.34 m/s, 27° | 0 W/m² | - |
| 1778030402 | 10° C | 93% | 1008.7 hPa | 0 mm | 4.02 m/s, 16° | 0 W/m² | - |
| 1778030100 | 10° C | 94% | 1008.5 hPa | 0 mm | 1.79 m/s, 9° | 0 W/m² | - |
| 1778029796 | 10° C | 93% | 1008.6 hPa | 0 mm | 2.68 m/s, 8° | 0 W/m² | - |
| 1778029495 | 10° C | 93% | 1008.2 hPa | 0 mm | 1.34 m/s, 13° | 0 W/m² | - |
| 1778029191 | 10° C | 94% | 1008.1 hPa | 0 mm | 0.45 m/s, 47° | 1 W/m² | - |
| 1778028889 | 10° C | 93% | 1008.1 hPa | 0 mm | 2.68 m/s, 347° | 1 W/m² | - |
| 1778028583 | 10° C | 93% | 1008.1 hPa | 0 mm | 0.89 m/s, 350° | 1 W/m² | - |
| 1778028282 | 10° C | 94% | 1008.5 hPa | 0 mm | 1.34 m/s, 25° | 2 W/m² | - |
| 1778027978 | 10° C | 94% | 1008.3 hPa | 0 mm | 3.13 m/s, 22° | 3 W/m² | - |
| 1778027675 | 10° C | 94% | 1008.3 hPa | 0 mm | 1.79 m/s, 12° | 3 W/m² | - |
| 1778027371 | 10° C | 94% | 1008.2 hPa | 0 mm | 2.24 m/s, 27° | 4 W/m² | - |
| 1778027067 | 10° C | 94% | 1007.8 hPa | 0 mm | 2.24 m/s, 11° | 6 W/m² | - |
| 1778026762 | 10.56° C | 94% | 1007.7 hPa | 0 mm | 2.68 m/s, 354° | 6 W/m² | - |
* Rain latest hour (hover to see other rain measurements)
** Current wind speed in m/s (hover to see current wind gust speed)